This is the latest recevied weather packets stored in our database for station/object KB3UMW-13. If no packets are shown the sender has not sent any weather packets the latest 10 day(s).
| Time | Temp. | Humidity | Pressure | Rain* | Wind** | Luminosity | Snow |
|---|---|---|---|---|---|---|---|
| 1778087875 | 16.11° C | 97% | 1008.8 hPa | 0 mm | - | 491 W/m² | - |
| 1778087571 | 16.11° C | 99% | 1009 hPa | 0 mm | - | 320 W/m² | - |
| 1778087269 | 15.56° C | 99% | 1008.8 hPa | 0 mm | - | 282 W/m² | - |
| 1778086965 | 15° C | 99% | 1008.8 hPa | 0 mm | - | 759 W/m² | - |
| 1778086664 | 15° C | 99% | 1009 hPa | 0 mm | - | 370 W/m² | - |
| 1778086361 | 14.44° C | 99% | 1008.8 hPa | 0 mm | - | 265 W/m² | - |
| 1778086058 | 14.44° C | 99% | 1008.8 hPa | 0 mm | - | 202 W/m² | - |
| 1778085754 | 14.44° C | 99% | 1008.6 hPa | 0 mm | - | 321 W/m² | - |
| 1778085452 | 14.44° C | 99% | 1008.5 hPa | 0 mm | - | 298 W/m² | - |
| 1778085146 | 14.44° C | 99% | 1008.7 hPa | 0 mm | - | 217 W/m² | - |
| 1778084842 | 14.44° C | 99% | 1008.6 hPa | 0 mm | - | 258 W/m² | - |
| 1778084540 | 14.44° C | 99% | 1008.5 hPa | 0 mm | - | 202 W/m² | - |
| 1778084237 | 15° C | 99% | 1008.8 hPa | 0 mm | - | 265 W/m² | - |
| 1778083935 | 14.44° C | 99% | 1008.7 hPa | 0 mm | - | 319 W/m² | - |
| 1778083632 | 14.44° C | 99% | 1008.5 hPa | 0.51 mm | - | 182 W/m² | - |
| 1778083328 | 14.44° C | 99% | 1008.2 hPa | 0 mm | - | 242 W/m² | - |
| 1778083027 | 14.44° C | 99% | 1008.4 hPa | 0 mm | - | 215 W/m² | - |
| 1778082724 | 14.44° C | 99% | 1008.1 hPa | 0 mm | - | 177 W/m² | - |
| 1778081586 | 14.44° C | 99% | 1008.1 hPa | 0 mm | - | 246 W/m² | - |
| 1778081283 | 13.89° C | 99% | 1008.1 hPa | 0 mm | - | 101 W/m² | - |
| 1778080980 | 13.89° C | 99% | 1008.5 hPa | 0 mm | - | 126 W/m² | - |
| 1778080679 | 13.89° C | 99% | 1008 hPa | 0 mm | - | 91 W/m² | - |
| 1778080375 | 13.89° C | 99% | 1008.2 hPa | 0 mm | - | 132 W/m² | - |
| 1778080071 | 13.89° C | 99% | 1007.9 hPa | 0 mm | - | 140 W/m² | - |
| 1778079769 | 13.89° C | 99% | 1007.8 hPa | 0 mm | - | 181 W/m² | - |
* Rain latest hour (hover to see other rain measurements)
** Current wind speed in m/s (hover to see current wind gust speed)